#timestamp,LO_Frequency,Hit,StdDev 
1514109615.6,286046999.0,N
1514109635.4,286046999.4,N
1514109655.2,286047004.4,N
1514109675.1,286047007.2,N
1514109676.0,286047007.2,N
1514109695.8,286047003.0,N
1514109715.6,286047004.7,N
1514109735.5,286047005.8,N
1514109755.3,286047001.3,N
1514109775.1,286047006.0,N
1514109795.9,286047002.4,N
1514109815.7,286046999.9,N
1514109835.5,286047001.9,N
1514109855.4,286047002.2,N
1514109875.2,286047003.4,N
1514109895.0,286047009.0,N
1514109895.9,286047009.0,N
1514109915.8,286047005.1,N
1514109935.6,286047005.4,N
1514109955.4,286047007.1,N
1514109975.2,286047004.9,N
1514109995.1,286047005.7,N
1514109996.0,286047005.7,N
1514110015.8,286047001.7,N
1514110035.6,286047001.6,N
1514110055.5,286047002.3,N
1514110075.3,286047002.7,N
1514110095.1,286047005.3,N
1514110115.9,286047007.2,N
1514110135.7,286047002.2,N
1514110155.5,286046997.3,N
1514110175.4,286046994.1,N
1514110195.2,286046995.5,N
1514110215.0,286046996.9,N
1514110215.9,286046996.9,N
1514110235.8,286046997.4,N
1514110255.6,286046992.2,N
1514110275.4,286046992.0,N
1514110295.3,286046996.1,N
1514110315.1,286046996.1,N
1514110316.0,286046996.1,N
1514110335.8,286046990.2,N
1514110355.7,286046991.2,N
1514110375.5,286046992.3,N
1514110395.3,286046996.2,N
1514110415.2,286046999.0,N
1514110435.9,286046999.2,N
1514110455.7,286046996.7,N
1514110475.5,286046995.8,N
1514110495.4,286046993.8,N
1514110515.2,286046997.2,N
1514110535.0,286046994.7,N
1514110535.9,286046994.7,N
1514110555.8,286046996.2,N
1514110575.6,286046994.7,N
1514110595.4,286046994.9,N
1514110615.3,286046992.7,N
1514110635.1,286046993.5,N
1514110655.8,286046998.9,N
1514110675.7,286046999.5,N
1514110695.5,286046995.0,N
1514110715.3,286046998.7,N
1514110735.2,286047000.8,N
1514110755.9,286047003.9,N
1514110775.7,286047002.4,N
1514110795.6,286047001.2,N
1514110815.4,286046998.6,N
1514110835.2,286047002.8,N
1514110855.0,286047004.3,N
1514110856.0,286047004.3,N
1514110875.8,286047010.4,N
1514110895.6,286047008.9,N
1514110915.4,286047006.9,N
1514110935.3,286047004.3,N
1514110955.1,286047005.1,N
1514110975.8,286047005.9,N
1514110995.7,286047007.4,N
1514111015.5,286047001.3,N
1514111035.3,286046996.6,N
1514111055.2,286046997.8,N
1514111075.9,286047002.5,N
1514111095.7,286047004.2,N
1514111115.6,286046999.0,N
1514111135.4,286047002.0,N
1514111155.2,286047003.7,N
1514111175.0,286047000.3,N
1514111176.0,286047000.3,N
1514111195.8,286047001.7,N
1514111215.6,286047002.2,N
1514111235.4,286047002.0,N
1514111255.3,286047003.0,N
1514111275.1,286047005.1,N
1514111295.8,286047007.4,N
1514111315.7,286047002.3,N
1514111335.5,286047001.8,N
1514111355.3,286047003.4,N
1514111375.2,286047004.1,N
1514111395.9,286047004.9,N
1514111415.7,286047005.7,N
1514111435.6,286047007.6,N
1514111455.4,286047003.4,N
1514111475.2,286047006.0,N
1514111495.1,286047001.5,N
1514111496.0,286047001.5,N
1514111515.8,286047000.7,N
1514111535.6,286046999.0,N
1514111555.4,286047000.6,N
1514111575.3,286046997.2,N
1514111595.1,286047002.7,N
1514111615.8,286047002.2,N
1514111635.7,286047005.9,N
1514111655.5,286047009.2,Y
1514111675.3,286047007.8,P
1514111695.2,286047007.7,P
1514111715.0,286047009.7,P
1514111715.9,286047009.7,Y
1514111735.8,286047009.9,P
1514111755.6,286047010.4,P
1514111775.4,286047004.5,N
1514111795.2,286047004.6,N
1514111815.1,286047009.9,Y
1514111816.0,286047009.9,P
1514111835.8,286047001.9,N
1514111855.6,286047000.6,N
1514111875.5,286047000.5,N
1514111895.3,286047000.5,N
1514111915.1,286047000.4,N
1514111935.9,286046999.2,N
1514111955.7,286046995.8,N
1514111975.5,286046993.3,N
1514111995.4,286046998.0,N
1514112015.2,286046995.5,N
1514112035.0,286046999.5,N
1514112035.9,286046999.5,N
1514112055.8,286046997.0,N
1514112075.6,286046996.3,N
1514112095.4,286046996.3,N
1514112115.2,286046999.2,N
1514112135.1,286046997.3,N
1514112136.0,286046997.3,N
1514112155.8,286046999.0,N
1514112175.6,286046999.2,N
1514112195.5,286046998.8,N
1514112215.3,286046998.5,N
1514112235.1,286046997.7,N
1514112255.9,286046998.0,N
1514112275.7,286046995.8,N
1514112295.5,286046996.0,N
1514112315.4,286046997.4,N
1514112335.2,286046998.8,N
1514112355.0,286046995.6,N
1514112355.9,286046995.6,N
1514112375.8,286046997.5,N
1514112395.6,286047000.2,N
1514112415.4,286047003.9,N
1514112435.3,286047004.3,N
1514112455.1,286047002.5,N
1514112456.0,286047002.5,N
1514112475.8,286047004.1,N
1514112495.7,286047003.7,N
1514112515.5,286047002.7,N
1514112535.3,286047000.0,N
1514112555.1,286047002.8,N
1514112575.9,286047002.2,N
1514112595.7,286047004.4,N
1514112615.5,286047002.3,N
1514112635.4,286047004.0,N
1514112655.2,286047004.5,N
1514112675.0,286047008.9,N
1514112675.9,286047008.9,N
1514112695.8,286047008.2,N
1514112715.6,286047006.2,N
1514112735.4,286047006.1,N
1514112755.3,286047008.7,N
1514112775.1,286047006.2,N
1514112776.0,286047006.2,N
1514112795.8,286047006.4,N
1514112815.7,286047005.7,N
1514112835.5,286047001.4,N
1514112855.3,286047002.3,N
1514112875.2,286047002.2,N
1514112895.9,286047000.9,N
1514112915.7,286046996.9,N
1514112935.6,286046996.6,N
1514112955.4,286046996.6,N
1514112975.2,286047003.3,N
1514112995.0,286047001.7,N
1514112995.9,286047001.7,N
1514113015.8,286047000.6,N
1514113035.6,286046998.8,N
1514113055.4,286046998.9,N
1514113075.3,286046995.0,N
1514113095.1,286046991.8,N
1514113115.8,286046993.0,N
1514113135.7,286046997.9,N
1514113155.5,286046998.1,N
1514113175.3,286047002.0,N
1514113195.2,286047001.5,N
